Location: Sungai Dangang
(2.7500°N, 113.8333°E)
Time: 19:09:44
(UTC+00:00)

Ariane H10+ - Pass Details

Date: 26 September 2021
Orbit: 237 x 7755 km, 6.8° (Epoch: 21 October)

Event Time Altitude Azimuth Distance (km) Brightness Sun altitude
Exits shadow 20:33:19 31° 251° (WSW) 4,308 5.2 -25.7°
Maximum altitude 20:46:43 79° 170° (S) 4,859 5.9 -22.3°
Drops below altitude 10° 21:43:47 10° 86° (E) 11,467 9.7 -8.1°
Sets 21:54:28 0° 85° (E) 12,078 10.7 -5.4°
